sat.trackr.live / text

‹ back to catalog

HJS-6C

NORAD 63430 · 2025-067C

PAYLOAD ACTIVE UNKNOWN

§ Identity

Operator
Country
PRC
Launch date
2025-04-01
Launch site
JSC
Launch vehicle
Mass (kg)
RCS (m²)

External: N2YO · Heavens-Above · Gunter

§ Orbital elements

Epoch: 2026-05-25T03:56:01.315104Z

Period
94.42 min
Inclination
54.9907°
Eccentricity
0.0004536
Mean motion
15.25082448 rev/d
Perigee alt
487.4 km
Apogee alt
493.7 km
Semi-major
6,868.7 km
B*
2.0230e-4
RAAN
128.8265°
Arg perigee
274.7564°
Mean anomaly
85.2940°
Rev number
6,442

§ Raw data

HJS-6C1 63430U 25067C   26145.16390411  .00004790  00000+0  20230-3 0  99982 63430  54.9907 128.8265 0004536 274.7564  85.2940 15.25082448 64420

JSON: /api/v1/satellites/63430 · /tle

For live sub-satellite position, see the globe view (requires WebGL).

§ Visibility from observer

Set your observer location to see the next 7 days of passes ≥ 10°. The values pass through the URL so the page stays shareable.

No JS? Fill the form by hand. The geolocation button needs JavaScript.